Find Local Weather

World > North America > United States > Kentucky

Elizabethtown, Kentucky Regional Weather

Lat: 37.70N, Lon: 85.87W
Wx Zone: KYZ028
Feedback
Expires:201805230800;;391317
ASUS43 KLMK 230710
RWRKY 
KENTUCKY REGIONAL WEATHER ROUNDUP
NATIONAL WEATHER SERVICE LOUISVILLE KY
300 AM EDT WED MAY 23 2018

NOTE "FAIR" INDICATES FEW OR NO CLOUDS BELOW 12,000 FEET
WITH NO SIGNIFICANT WEATHER AND/OR OBSTRUCTIONS TO VISIBILITY.


KYZ024-025-028>034-038-045-046-053-230800-
NORTH CENTRAL KENTUCKY
  
CITY           SKY/WX    TMP DP  RH WIND       PRES   REMARKS
LOUISVILLE/SDF MOCLDY    73  70  90 NW6       30.02S                  
LOUISVILLE/LOU FAIR      73  71  93 NW3       30.03S                  
FORT KNOX      FAIR      68  68 100 CALM      30.04F                  
$$


SKY/WX - Weather  TMP - Temperature  DP - Dewpoint  RH - Relative Humidity
WIND - Wind Direction/Speed PRES - Barometric Pressure